HAZ281 ROAH-VHHH

Flight info

Callsign HAZ281
Flight time 2h 11m
Altitude 36000
Route GANJU Y576 LILRA Y573 SEDKU R595 APU A1 ELATO V522 ABBEY
Aircraft A21N/M-SDE3FGHIRWY/LB1

Departure

Time 2026-05-08 12:16
Airport Naha International Airport (ROAH)

Arrival

Time 2026-05-08 14:28
Airport Hong Kong International Airport (VHHH)
Time Latitude Longitude Altitude Speed Heading
2026-05-08 12:00 26.20952 127.64964 33 ft 0 kts 86°
2026-05-08 12:06 26.20952 127.64960 32 ft 2 kts 86°
2026-05-08 12:06 26.20951 127.64943 32 ft 2 kts 86°
2026-05-08 12:06 26.20950 127.64926 31 ft 2 kts 86°
2026-05-08 12:06 26.20950 127.64909 30 ft 2 kts 111°
2026-05-08 12:07 26.20959 127.64896 30 ft 2 kts 143°
2026-05-08 12:07 26.20972 127.64889 30 ft 0 kts 174°
2026-05-08 12:07 26.20978 127.64889 30 ft 1 kts 181°
2026-05-08 12:07 26.20981 127.64889 30 ft 0 kts 179°
2026-05-08 12:09 26.20975 127.64889 30 ft 1 kts 179°
2026-05-08 12:09 26.20959 127.64889 30 ft 3 kts 185°
2026-05-08 12:09 26.20933 127.64874 29 ft 5 kts 221°
2026-05-08 12:10 26.20913 127.64817 27 ft 10 kts 264°
2026-05-08 12:10 26.20883 127.64742 26 ft 9 kts 222°
2026-05-08 12:10 26.20820 127.64733 25 ft 9 kts 176°
2026-05-08 12:10 26.20723 127.64740 26 ft 15 kts 178°
2026-05-08 12:11 26.20613 127.64745 26 ft 16 kts 177°
2026-05-08 12:11 26.20507 127.64750 26 ft 14 kts 177°
2026-05-08 12:11 26.20402 127.64755 26 ft 15 kts 178°
2026-05-08 12:11 26.20289 127.64760 26 ft 17 kts 177°
2026-05-08 12:12 26.20158 127.64767 26 ft 20 kts 178°
2026-05-08 12:12 26.19992 127.64775 27 ft 24 kts 177°
2026-05-08 12:12 26.19823 127.64783 28 ft 23 kts 178°
2026-05-08 12:12 26.19665 127.64790 30 ft 21 kts 177°
2026-05-08 12:13 26.19515 127.64796 30 ft 21 kts 178°
2026-05-08 12:13 26.19367 127.64803 30 ft 20 kts 177°
2026-05-08 12:13 26.19222 127.64810 30 ft 20 kts 177°
2026-05-08 12:13 26.19067 127.64818 28 ft 24 kts 177°
2026-05-08 12:14 26.18897 127.64825 27 ft 24 kts 177°
2026-05-08 12:14 26.18732 127.64834 27 ft 23 kts 178°
2026-05-08 12:14 26.18590 127.64840 26 ft 14 kts 178°
2026-05-08 12:14 26.18510 127.64790 23 ft 15 kts 264°
2026-05-08 12:15 26.18509 127.64671 21 ft 12 kts 265°
2026-05-08 12:15 26.18516 127.64638 21 ft 2 kts 337°
2026-05-08 12:15 26.18524 127.64636 21 ft 0 kts 355°
2026-05-08 12:15 26.18535 127.64635 21 ft 16 kts 356°
2026-05-08 12:16 26.18943 127.64617 25 ft 96 kts 358°
2026-05-08 12:16 26.19851 127.64574 46 ft 157 kts 359°
2026-05-08 12:16 26.20968 127.64517 638 ft 164 kts 359°
2026-05-08 12:16 26.22092 127.64449 1386 ft 162 kts
2026-05-08 12:17 26.23183 127.64405 2186 ft 160 kts
2026-05-08 12:17 26.24279 127.64368 2939 ft 161 kts
2026-05-08 12:17 26.25411 127.64294 3576 ft 170 kts 354°
2026-05-08 12:17 26.26589 127.63813 4049 ft 192 kts 337°
2026-05-08 12:18 26.27797 127.63075 4536 ft 209 kts 333°
2026-05-08 12:18 26.29111 127.62226 5025 ft 226 kts 331°
2026-05-08 12:18 26.30536 127.61301 5422 ft 249 kts 330°
2026-05-08 12:18 26.32107 127.60287 5936 ft 269 kts 329°
2026-05-08 12:19 26.33755 127.59229 6576 ft 282 kts 328°
2026-05-08 12:19 26.35471 127.58131 7424 ft 286 kts 328°
2026-05-08 12:19 26.37189 127.57032 8303 ft 288 kts 327°
2026-05-08 12:19 26.38899 127.55864 9137 ft 288 kts 317°
2026-05-08 12:20 26.40171 127.54182 9938 ft 282 kts 294°
2026-05-08 12:20 26.40770 127.52148 10663 ft 281 kts 275°
2026-05-08 12:20 26.40673 127.49940 11054 ft 295 kts 256°
2026-05-08 12:20 26.39795 127.47826 11371 ft 313 kts 235°
2026-05-08 12:21 26.38331 127.45924 11692 ft 330 kts 230°
2026-05-08 12:21 26.36785 127.43955 11982 ft 347 kts 231°
2026-05-08 12:21 26.35170 127.41891 12257 ft 363 kts 230°
2026-05-08 12:21 26.33392 127.39799 12590 ft 377 kts 227°
2026-05-08 12:22 26.31502 127.37722 13146 ft 382 kts 227°
2026-05-08 12:22 26.29612 127.35655 13753 ft 384 kts 227°
2026-05-08 12:22 26.27705 127.33566 14333 ft 388 kts 227°
2026-05-08 12:22 26.25794 127.31477 14886 ft 391 kts 227°
2026-05-08 12:23 26.23829 127.29327 15432 ft 394 kts 227°
2026-05-08 12:23 26.21864 127.27181 15953 ft 397 kts 227°
2026-05-08 12:23 26.19895 127.25029 16468 ft 400 kts 227°
2026-05-08 12:23 26.17892 127.22843 16944 ft 404 kts 227°
2026-05-08 12:24 26.15886 127.20653 17394 ft 407 kts 227°
2026-05-08 12:24 26.13924 127.18345 17877 ft 408 kts 231°
2026-05-08 12:24 26.12140 127.15924 18331 ft 410 kts 234°
2026-05-08 12:24 26.10493 127.13329 18761 ft 412 kts 238°
2026-05-08 12:25 26.08952 127.10636 19203 ft 414 kts 239°
2026-05-08 12:25 26.07412 127.07914 19625 ft 417 kts 239°
2026-05-08 12:25 26.05862 127.05170 20032 ft 420 kts 239°
2026-05-08 12:25 26.04320 127.02441 20442 ft 422 kts 239°
2026-05-08 12:26 26.02757 126.99678 20816 ft 425 kts 239°
2026-05-08 12:26 26.01170 126.96877 21202 ft 427 kts 239°
2026-05-08 12:26 25.99585 126.94080 21565 ft 429 kts 239°
2026-05-08 12:26 25.98000 126.91288 21931 ft 431 kts 239°
2026-05-08 12:27 25.96395 126.88463 22285 ft 434 kts 239°
2026-05-08 12:27 25.94785 126.85630 22629 ft 436 kts 239°
2026-05-08 12:27 25.93156 126.82764 22943 ft 439 kts 239°
2026-05-08 12:27 25.91536 126.79917 23272 ft 441 kts 239°
2026-05-08 12:28 25.89893 126.77032 23624 ft 443 kts 239°
2026-05-08 12:28 25.88241 126.74131 23973 ft 445 kts 240°
2026-05-08 12:28 25.86644 126.71202 24450 ft 442 kts 242°
2026-05-08 12:28 25.85143 126.68280 24974 ft 439 kts 243°
2026-05-08 12:29 25.83639 126.65352 25482 ft 437 kts 243°
2026-05-08 12:29 25.82143 126.62436 25958 ft 435 kts 243°
2026-05-08 12:29 25.80653 126.59534 26406 ft 434 kts 243°
2026-05-08 12:29 25.79163 126.56633 26853 ft 432 kts 243°
2026-05-08 12:30 25.77668 126.53728 27276 ft 432 kts 244°
2026-05-08 12:30 25.76197 126.50868 27703 ft 430 kts 244°
2026-05-08 12:30 25.74705 126.47968 28144 ft 429 kts 244°
2026-05-08 12:30 25.73238 126.45120 28579 ft 427 kts 244°
2026-05-08 12:31 25.71770 126.42271 29006 ft 426 kts 244°
2026-05-08 12:31 25.70316 126.39447 29438 ft 424 kts 244°
2026-05-08 12:31 25.68865 126.36637 29850 ft 422 kts 244°
2026-05-08 12:31 25.67404 126.33806 30256 ft 421 kts 244°
2026-05-08 12:32 25.65942 126.30981 30663 ft 420 kts 244°
2026-05-08 12:32 25.64500 126.28190 31060 ft 418 kts 244°
2026-05-08 12:32 25.63078 126.25439 31438 ft 417 kts 244°
2026-05-08 12:32 25.61626 126.22631 31801 ft 416 kts 244°
2026-05-08 12:33 25.60199 126.19877 32166 ft 415 kts 244°
2026-05-08 12:33 25.58766 126.17109 32500 ft 414 kts 245°
2026-05-08 12:33 25.57325 126.14332 32846 ft 413 kts 245°
2026-05-08 12:33 25.55909 126.11603 33240 ft 411 kts 245°
2026-05-08 12:34 25.54496 126.08884 33582 ft 410 kts 245°
2026-05-08 12:34 25.53064 126.06127 33866 ft 410 kts 245°
2026-05-08 12:34 25.51659 126.03422 34129 ft 410 kts 245°
2026-05-08 12:34 25.50244 126.00698 34384 ft 411 kts 245°
2026-05-08 12:35 25.48822 125.97962 34611 ft 411 kts 245°
2026-05-08 12:35 25.47392 125.95213 34839 ft 412 kts 245°
2026-05-08 12:35 25.45956 125.92458 35042 ft 413 kts 245°
2026-05-08 12:35 25.44531 125.89726 35229 ft 414 kts 245°
2026-05-08 12:36 25.43092 125.86964 35399 ft 415 kts 245°
2026-05-08 12:36 25.41649 125.84199 35570 ft 416 kts 245°
2026-05-08 12:36 25.40198 125.81425 35754 ft 416 kts 245°
2026-05-08 12:36 25.38767 125.78691 35903 ft 417 kts 246°
2026-05-08 12:37 25.35847 125.73109 35988 ft 420 kts 246°
2026-05-08 12:37 25.32905 125.67540 35988 ft 420 kts 245°
2026-05-08 12:38 25.29951 125.62004 35989 ft 420 kts 245°
2026-05-08 12:38 25.26984 125.56447 35983 ft 420 kts 245°
2026-05-08 12:39 25.24030 125.50918 35990 ft 420 kts 245°
2026-05-08 12:39 25.21058 125.45360 35992 ft 420 kts 245°
2026-05-08 12:40 25.18086 125.39809 35991 ft 420 kts 245°
2026-05-08 12:40 25.15126 125.34285 35986 ft 419 kts 245°
2026-05-08 12:41 25.12146 125.28733 35983 ft 420 kts 245°
2026-05-08 12:41 25.08960 125.23311 35983 ft 425 kts 240°
2026-05-08 12:42 25.05419 125.18068 35980 ft 427 kts 239°
2026-05-08 12:42 25.01874 125.12850 35975 ft 427 kts 239°
2026-05-08 12:43 24.98228 125.07680 35975 ft 429 kts 237°
2026-05-08 12:43 24.94450 125.02578 35974 ft 429 kts 237°
2026-05-08 12:44 24.90683 124.97501 35974 ft 428 kts 237°
2026-05-08 12:44 24.87236 124.92221 35974 ft 420 kts 247°
2026-05-08 12:45 24.85062 124.86377 35981 ft 412 kts 259°
2026-05-08 12:45 24.84204 124.80241 35985 ft 405 kts 271°
2026-05-08 12:46 24.84581 124.74090 35989 ft 404 kts 279°
2026-05-08 12:46 24.85311 124.67958 35988 ft 403 kts 279°
2026-05-08 12:47 24.86048 124.61851 35990 ft 403 kts 279°
2026-05-08 12:47 24.86779 124.55759 35989 ft 403 kts 279°
2026-05-08 12:48 24.87512 124.49644 35991 ft 403 kts 279°
2026-05-08 12:48 24.88240 124.43559 35986 ft 403 kts 279°
2026-05-08 12:49 24.88966 124.37447 35991 ft 404 kts 279°
2026-05-08 12:49 24.89687 124.31359 35991 ft 403 kts 279°
2026-05-08 12:50 24.90413 124.25215 35991 ft 403 kts 279°
2026-05-08 12:50 24.91134 124.19096 35990 ft 404 kts 279°
2026-05-08 12:51 24.92205 124.09916 35990 ft 404 kts 279°
2026-05-08 12:52 24.92912 124.03828 35990 ft 403 kts 279°
2026-05-08 12:52 24.93943 123.94659 35992 ft 402 kts 278°
2026-05-08 12:53 24.94590 123.88554 35992 ft 402 kts 278°
2026-05-08 12:53 24.95236 123.82433 35993 ft 402 kts 279°
2026-05-08 12:54 24.95879 123.76328 35993 ft 402 kts 278°
2026-05-08 12:54 24.96516 123.70255 35992 ft 402 kts 279°
2026-05-08 12:55 24.97153 123.64164 35992 ft 401 kts 278°
2026-05-08 12:55 24.97786 123.58079 35996 ft 401 kts 279°
2026-05-08 12:56 24.98417 123.51991 35999 ft 400 kts 279°
2026-05-08 12:56 24.99045 123.45904 35997 ft 400 kts 278°
2026-05-08 12:57 24.99672 123.39802 35997 ft 400 kts 279°
2026-05-08 12:57 25.00288 123.33764 36001 ft 399 kts 278°
2026-05-08 12:58 25.00906 123.27679 35996 ft 399 kts 278°
2026-05-08 12:58 25.01518 123.21639 35997 ft 399 kts 278°
2026-05-08 12:59 25.02131 123.15591 35996 ft 398 kts 278°
2026-05-08 12:59 25.02738 123.09556 35999 ft 397 kts 278°
2026-05-08 13:00 25.03339 123.03525 35997 ft 397 kts 278°
2026-05-08 13:00 25.03943 122.97497 35995 ft 397 kts 278°
2026-05-08 13:01 25.04552 122.91463 35998 ft 397 kts 278°
2026-05-08 13:01 25.05153 122.85425 36001 ft 397 kts 278°
2026-05-08 13:02 25.05752 122.79378 36008 ft 397 kts 278°
2026-05-08 13:02 25.06344 122.73373 36011 ft 396 kts 278°
2026-05-08 13:03 25.06937 122.67334 36021 ft 396 kts 278°
2026-05-08 13:03 25.07523 122.61312 36030 ft 396 kts 278°
2026-05-08 13:04 25.08110 122.55271 36032 ft 397 kts 278°
2026-05-08 13:04 25.08693 122.49223 36034 ft 397 kts 278°
2026-05-08 13:05 25.09272 122.43195 36039 ft 397 kts 278°
2026-05-08 13:05 25.09848 122.37152 36040 ft 396 kts 278°
2026-05-08 13:06 25.10426 122.31139 36043 ft 397 kts 278°
2026-05-08 13:06 25.10979 122.25084 36042 ft 397 kts 277°
2026-05-08 13:07 25.11485 122.19022 36046 ft 397 kts 277°
2026-05-08 13:07 25.11985 122.13020 36048 ft 397 kts 277°
2026-05-08 13:08 25.12489 122.06947 36049 ft 396 kts 277°
2026-05-08 13:08 25.13005 122.00913 36051 ft 396 kts 277°
2026-05-08 13:09 25.13570 121.94892 36053 ft 395 kts 278°
2026-05-08 13:09 25.14171 121.88884 36054 ft 395 kts 278°
2026-05-08 13:10 25.14759 121.82897 36056 ft 395 kts 278°
2026-05-08 13:10 25.15346 121.76866 36058 ft 395 kts 278°
2026-05-08 13:11 25.15924 121.70866 36056 ft 396 kts 278°
2026-05-08 13:11 25.16502 121.64840 36053 ft 396 kts 278°
2026-05-08 13:12 25.16647 121.58752 36049 ft 399 kts 268°
2026-05-08 13:12 25.15549 121.52744 36047 ft 406 kts 257°
2026-05-08 13:13 25.13206 121.47051 36047 ft 414 kts 245°
2026-05-08 13:13 25.09711 121.41909 36049 ft 422 kts 237°
2026-05-08 13:14 25.05920 121.36974 36044 ft 422 kts 236°
2026-05-08 13:14 25.02117 121.32052 36044 ft 423 kts 236°
2026-05-08 13:15 24.98306 121.27126 36043 ft 423 kts 236°
2026-05-08 13:15 24.94474 121.22175 36043 ft 423 kts 236°
2026-05-08 13:16 24.90680 121.17275 36038 ft 424 kts 236°
2026-05-08 13:16 24.86822 121.12304 36037 ft 424 kts 236°
2026-05-08 13:17 24.82999 121.07378 36033 ft 425 kts 236°
2026-05-08 13:17 24.79141 121.02410 36028 ft 424 kts 236°
2026-05-08 13:18 24.75328 120.97507 36020 ft 424 kts 236°
2026-05-08 13:18 24.71473 120.92557 36024 ft 425 kts 236°
2026-05-08 13:19 24.67642 120.87640 36031 ft 425 kts 236°
2026-05-08 13:19 24.63809 120.82728 36034 ft 425 kts 236°
2026-05-08 13:20 24.59960 120.77802 36031 ft 425 kts 236°
2026-05-08 13:20 24.56084 120.72877 36019 ft 427 kts 234°
2026-05-08 13:21 24.52001 120.68166 36019 ft 428 kts 233°
2026-05-08 13:21 24.47855 120.63429 36017 ft 429 kts 233°
2026-05-08 13:22 24.43724 120.58716 36010 ft 430 kts 233°
2026-05-08 13:22 24.39587 120.54005 36008 ft 430 kts 233°
2026-05-08 13:23 24.35450 120.49297 36001 ft 430 kts 233°
2026-05-08 13:23 24.31248 120.44521 35998 ft 430 kts 233°
2026-05-08 13:24 24.27113 120.39823 36000 ft 430 kts 233°
2026-05-08 13:24 24.22955 120.35106 36001 ft 431 kts 233°
2026-05-08 13:25 24.18796 120.30382 35996 ft 431 kts 232°
2026-05-08 13:25 24.14612 120.25639 35997 ft 432 kts 232°
2026-05-08 13:26 24.10453 120.20933 35987 ft 432 kts 232°
2026-05-08 13:26 24.06254 120.16188 35980 ft 432 kts 232°
2026-05-08 13:27 24.02090 120.11489 35977 ft 432 kts 232°
2026-05-08 13:27 23.97901 120.06763 35976 ft 432 kts 232°
2026-05-08 13:28 23.93733 120.02065 35974 ft 432 kts 232°
2026-05-08 13:28 23.89564 119.97370 35970 ft 432 kts 232°
2026-05-08 13:29 23.85374 119.92659 35967 ft 433 kts 232°
2026-05-08 13:29 23.81178 119.87947 35973 ft 433 kts 232°
2026-05-08 13:30 23.76990 119.83247 35975 ft 432 kts 232°
2026-05-08 13:30 23.72779 119.78526 35973 ft 433 kts 232°
2026-05-08 13:31 23.68585 119.73828 35976 ft 433 kts 232°
2026-05-08 13:31 23.64379 119.69124 35977 ft 434 kts 232°
2026-05-08 13:32 23.60368 119.64275 35983 ft 430 kts 237°
2026-05-08 13:32 23.56846 119.59024 35984 ft 426 kts 243°
2026-05-08 13:33 23.53683 119.53587 35982 ft 426 kts 243°
2026-05-08 13:33 23.50541 119.48166 35983 ft 426 kts 243°
2026-05-08 13:34 23.47375 119.42708 35981 ft 425 kts 243°
2026-05-08 13:34 23.44214 119.37267 35983 ft 425 kts 243°
2026-05-08 13:35 23.41048 119.31827 35982 ft 426 kts 243°
2026-05-08 13:35 23.37885 119.26392 35982 ft 426 kts 243°
2026-05-08 13:36 23.34722 119.20963 35981 ft 426 kts 243°
2026-05-08 13:36 23.31539 119.15510 35985 ft 426 kts 243°
2026-05-08 13:37 23.28376 119.10091 35984 ft 427 kts 243°
2026-05-08 13:37 23.25200 119.04659 35983 ft 427 kts 243°
2026-05-08 13:38 23.22007 118.99205 35984 ft 427 kts 243°
2026-05-08 13:38 23.18829 118.93782 35979 ft 428 kts 243°
2026-05-08 13:39 23.15645 118.88354 35979 ft 428 kts 243°
2026-05-08 13:39 23.12437 118.82890 35979 ft 428 kts 243°
2026-05-08 13:40 23.09243 118.77461 35978 ft 428 kts 243°
2026-05-08 13:40 23.06046 118.72025 35981 ft 428 kts 243°
2026-05-08 13:41 23.02825 118.66558 35985 ft 428 kts 243°
2026-05-08 13:41 22.99634 118.61150 35990 ft 429 kts 243°
2026-05-08 13:42 22.96424 118.55713 35991 ft 429 kts 243°
2026-05-08 13:42 22.93197 118.50266 35989 ft 430 kts 243°
2026-05-08 13:43 22.89962 118.44825 35991 ft 429 kts 242°
2026-05-08 13:43 22.86727 118.39395 35985 ft 430 kts 242°
2026-05-08 13:44 22.83473 118.33935 35990 ft 431 kts 242°
2026-05-08 13:44 22.80227 118.28496 35988 ft 432 kts 242°
2026-05-08 13:45 22.76959 118.23026 35985 ft 432 kts 242°
2026-05-08 13:45 22.73694 118.17567 35986 ft 433 kts 242°
2026-05-08 13:46 22.70425 118.12105 35984 ft 434 kts 242°
2026-05-08 13:46 22.67149 118.06639 35984 ft 435 kts 242°
2026-05-08 13:47 22.63851 118.01144 35983 ft 435 kts 242°
2026-05-08 13:47 22.60557 117.95657 35983 ft 435 kts 242°
2026-05-08 13:48 22.57293 117.90170 35983 ft 435 kts 242°
2026-05-08 13:48 22.54044 117.84697 35984 ft 435 kts 243°
2026-05-08 13:49 22.50771 117.79188 35983 ft 435 kts 242°
2026-05-08 13:49 22.47484 117.73672 35981 ft 437 kts 242°
2026-05-08 13:50 22.44199 117.68161 35979 ft 438 kts 242°
2026-05-08 13:50 22.40908 117.62648 35979 ft 438 kts 242°
2026-05-08 13:51 22.37676 117.57080 35978 ft 434 kts 246°
2026-05-08 13:51 22.35218 117.51177 35979 ft 430 kts 255°
2026-05-08 13:52 22.33712 117.44992 35979 ft 425 kts 264°
2026-05-08 13:52 22.33163 117.38741 35977 ft 421 kts 272°
2026-05-08 13:53 22.33042 117.32430 35979 ft 421 kts 272°
2026-05-08 13:53 22.32931 117.26112 35978 ft 421 kts 272°
2026-05-08 13:54 22.32816 117.19833 35976 ft 421 kts 272°
2026-05-08 13:54 22.32698 117.13515 35978 ft 421 kts 272°
2026-05-08 13:55 22.32575 117.07208 35979 ft 421 kts 272°
2026-05-08 13:56 22.32386 116.97746 35978 ft 422 kts 272°
2026-05-08 13:56 22.32258 116.91459 35979 ft 421 kts 272°
2026-05-08 13:57 22.32128 116.85153 35980 ft 422 kts 272°
2026-05-08 13:57 22.31995 116.78845 35980 ft 421 kts 272°
2026-05-08 13:58 22.31856 116.72536 35978 ft 421 kts 272°
2026-05-08 13:58 22.31719 116.66227 35977 ft 421 kts 272°
2026-05-08 13:59 22.31578 116.59893 35977 ft 422 kts 272°
2026-05-08 13:59 22.31434 116.53583 35978 ft 422 kts 272°
2026-05-08 14:00 22.31286 116.47259 35978 ft 421 kts 272°
2026-05-08 14:00 22.31138 116.40950 35979 ft 422 kts 271°
2026-05-08 14:01 22.30988 116.34639 35979 ft 421 kts 271°
2026-05-08 14:01 22.30834 116.28324 35977 ft 422 kts 271°
2026-05-08 14:02 22.30677 116.22010 35979 ft 421 kts 271°
2026-05-08 14:02 22.30520 116.15700 35979 ft 422 kts 271°
2026-05-08 14:03 22.30357 116.09378 35713 ft 422 kts 271°
2026-05-08 14:03 22.30275 116.06236 35432 ft 419 kts 271°
2026-05-08 14:03 22.30193 116.03106 35149 ft 417 kts 271°
2026-05-08 14:03 22.30111 115.99997 34865 ft 414 kts 271°
2026-05-08 14:04 22.30029 115.96906 34557 ft 407 kts 271°
2026-05-08 14:04 22.29947 115.93882 34133 ft 411 kts 271°
2026-05-08 14:04 22.29865 115.90791 33583 ft 416 kts 271°
2026-05-08 14:04 22.29781 115.87674 32935 ft 418 kts 270°
2026-05-08 14:05 22.29695 115.84508 32274 ft 420 kts 270°
2026-05-08 14:05 22.29610 115.81394 31593 ft 421 kts 270°
2026-05-08 14:05 22.29527 115.78232 30861 ft 422 kts 270°
2026-05-08 14:05 22.29445 115.75093 30108 ft 424 kts 270°
2026-05-08 14:06 22.29362 115.71918 29341 ft 426 kts 270°
2026-05-08 14:06 22.29277 115.68730 28559 ft 428 kts 269°
2026-05-08 14:06 22.29193 115.65524 27777 ft 431 kts 269°
2026-05-08 14:06 22.29106 115.62286 26960 ft 434 kts 269°
2026-05-08 14:07 22.29017 115.59043 26116 ft 437 kts 269°
2026-05-08 14:07 22.28926 115.55753 25244 ft 440 kts 270°
2026-05-08 14:07 22.28834 115.52441 24331 ft 444 kts 270°
2026-05-08 14:07 22.28739 115.49104 23399 ft 448 kts 270°
2026-05-08 14:08 22.28645 115.45801 22776 ft 444 kts 270°
2026-05-08 14:08 22.28549 115.42473 22160 ft 440 kts 270°
2026-05-08 14:08 22.28454 115.39185 21551 ft 437 kts 270°
2026-05-08 14:08 22.28361 115.35960 20943 ft 433 kts 270°
2026-05-08 14:09 22.28268 115.32739 20329 ft 430 kts 269°
2026-05-08 14:09 22.28174 115.29529 19717 ft 427 kts 269°
2026-05-08 14:09 22.28079 115.26334 19103 ft 423 kts 269°
2026-05-08 14:09 22.27982 115.23149 18495 ft 420 kts 269°
2026-05-08 14:10 22.27886 115.20019 17884 ft 417 kts 269°
2026-05-08 14:10 22.27790 115.16904 17284 ft 413 kts 269°
2026-05-08 14:10 22.27693 115.13821 16687 ft 410 kts 269°
2026-05-08 14:10 22.27595 115.10759 16076 ft 408 kts 269°
2026-05-08 14:11 22.27497 115.07727 15464 ft 405 kts 269°
2026-05-08 14:11 22.27398 115.04672 14850 ft 402 kts 269°
2026-05-08 14:11 22.27300 115.01662 14233 ft 399 kts 269°
2026-05-08 14:11 22.27204 114.98697 13626 ft 396 kts 269°
2026-05-08 14:12 22.27108 114.95749 13012 ft 394 kts 269°
2026-05-08 14:12 22.27013 114.92821 12469 ft 388 kts 268°
2026-05-08 14:12 22.26919 114.89955 12110 ft 378 kts 269°
2026-05-08 14:12 22.26825 114.87165 11822 ft 365 kts 269°
2026-05-08 14:13 22.26734 114.84461 11569 ft 353 kts 269°
2026-05-08 14:13 22.26648 114.81856 11276 ft 344 kts 269°
2026-05-08 14:13 22.26524 114.79313 11075 ft 332 kts 266°
2026-05-08 14:13 22.26246 114.76892 10947 ft 326 kts 262°
2026-05-08 14:14 22.25810 114.74472 10967 ft 330 kts 259°
2026-05-08 14:14 22.25330 114.72041 10832 ft 332 kts 259°
2026-05-08 14:14 22.24845 114.69610 10436 ft 328 kts 259°
2026-05-08 14:14 22.24369 114.67234 10224 ft 317 kts 259°
2026-05-08 14:15 22.23918 114.64980 10089 ft 304 kts 259°
2026-05-08 14:15 22.23481 114.62792 9893 ft 295 kts 258°
2026-05-08 14:15 22.23053 114.60648 9511 ft 293 kts 259°
2026-05-08 14:15 22.22624 114.58497 9133 ft 291 kts 259°
2026-05-08 14:16 22.22198 114.56370 8765 ft 289 kts 259°
2026-05-08 14:16 22.21781 114.54277 8403 ft 287 kts 259°
2026-05-08 14:16 22.21362 114.52182 8044 ft 285 kts 258°
2026-05-08 14:16 22.20944 114.50086 7684 ft 283 kts 258°
2026-05-08 14:17 22.20531 114.48024 7332 ft 281 kts 258°
2026-05-08 14:17 22.20122 114.45982 6984 ft 279 kts 259°
2026-05-08 14:17 22.19712 114.43935 6635 ft 277 kts 258°
2026-05-08 14:17 22.19481 114.41891 6246 ft 276 kts 277°
2026-05-08 14:18 22.20151 114.40016 5903 ft 271 kts 308°
2026-05-08 14:18 22.21616 114.38715 5886 ft 273 kts 336°
2026-05-08 14:18 22.23417 114.38032 5923 ft 274 kts 343°
2026-05-08 14:18 22.25249 114.37392 5945 ft 275 kts 343°
2026-05-08 14:19 22.27079 114.36739 5969 ft 275 kts 342°
2026-05-08 14:19 22.28890 114.36082 5985 ft 275 kts 342°
2026-05-08 14:19 22.30720 114.35413 5993 ft 276 kts 342°
2026-05-08 14:19 22.32543 114.34741 5996 ft 276 kts 342°
2026-05-08 14:20 22.34368 114.34068 5997 ft 276 kts 342°
2026-05-08 14:20 22.36198 114.33394 5997 ft 277 kts 342°
2026-05-08 14:20 22.38018 114.32720 5998 ft 277 kts 341°
2026-05-08 14:20 22.39684 114.31690 5981 ft 279 kts 315°
2026-05-08 14:21 22.40652 114.29874 5654 ft 283 kts 284°
2026-05-08 14:21 22.40979 114.27808 5449 ft 274 kts 279°
2026-05-08 14:21 22.41280 114.25825 5385 ft 260 kts 280°
2026-05-08 14:21 22.41590 114.23943 5316 ft 247 kts 278°
2026-05-08 14:22 22.41543 114.22131 5176 ft 238 kts 256°
2026-05-08 14:22 22.41048 114.20451 4927 ft 234 kts 249°
2026-05-08 14:22 22.40489 114.18811 4678 ft 229 kts 250°
2026-05-08 14:22 22.39956 114.17240 4513 ft 220 kts 250°
2026-05-08 14:23 22.39450 114.15709 4286 ft 213 kts 250°
2026-05-08 14:23 22.38970 114.14233 3987 ft 203 kts 251°
2026-05-08 14:23 22.38517 114.12830 3699 ft 191 kts 251°
2026-05-08 14:23 22.38095 114.11517 3482 ft 181 kts 251°
2026-05-08 14:24 22.37684 114.10239 3252 ft 181 kts 251°
2026-05-08 14:24 22.37269 114.08945 3014 ft 182 kts 251°
2026-05-08 14:24 22.36852 114.07647 2777 ft 182 kts 251°
2026-05-08 14:24 22.36439 114.06362 2549 ft 181 kts 251°
2026-05-08 14:25 22.36027 114.05078 2316 ft 181 kts 251°
2026-05-08 14:25 22.35616 114.03799 2082 ft 180 kts 251°
2026-05-08 14:25 22.35208 114.02534 1855 ft 179 kts 251°
2026-05-08 14:25 22.34803 114.01269 1630 ft 178 kts 251°
2026-05-08 14:26 22.34396 114.00005 1403 ft 177 kts 251°
2026-05-08 14:26 22.33997 113.98767 1207 ft 174 kts 251°
2026-05-08 14:26 22.33602 113.97539 963 ft 166 kts 251°
2026-05-08 14:26 22.33236 113.96403 729 ft 154 kts 251°
2026-05-08 14:27 22.32894 113.95352 531 ft 147 kts 251°
2026-05-08 14:27 22.32551 113.94315 369 ft 145 kts 251°
2026-05-08 14:27 22.32214 113.93284 184 ft 143 kts 251°
2026-05-08 14:27 22.31898 113.92280 55 ft 140 kts 251°
2026-05-08 14:28 22.31606 113.91370 36 ft 108 kts 248°
2026-05-08 14:28 22.31437 113.90865 36 ft 47 kts 252°
2026-05-08 14:28 22.31289 113.90635 35 ft 26 kts 223°
2026-05-08 14:28 22.31182 113.90614 36 ft 14 kts 140°
2026-05-08 14:29 22.31185 113.90657 36 ft 5 kts 66°
2026-05-08 14:29 22.31205 113.90716 36 ft 9 kts 70°
2026-05-08 14:29 22.31228 113.90785 36 ft 10 kts 70°
2026-05-08 14:29 22.31256 113.90871 36 ft 17 kts 71°
2026-05-08 14:30 22.31305 113.91026 36 ft 29 kts 71°
2026-05-08 14:30 22.31370 113.91225 36 ft 27 kts 71°
2026-05-08 14:30 22.31418 113.91389 36 ft 15 kts 94°
2026-05-08 14:30 22.31346 113.91447 36 ft 13 kts 166°
2026-05-08 14:31 22.31265 113.91485 36 ft 10 kts 124°
2026-05-08 14:31 22.31270 113.91537 36 ft 5 kts 71°
2026-05-08 14:31 22.31284 113.91581 36 ft 6 kts 71°
2026-05-08 14:32 22.31288 113.91592 36 ft 0 kts 71°